Weather History for Mount Ida, AR

Change the Weather History Date:

Sunday, December 23, 2012

  Actual Average (KHOT) Record (KHOT)
Temperature  
Mean Temperature 57 °F -  
Max Temperature 66 °F 51 °F 73 °F (1954)
Min Temperature 48 °F 30 °F -5 °F (1989)
Degree Days  
Heating Degree Days 8    
Growing Degree Days 7 (Base 50)    
Moisture  
Dew Point 48 °F    
Average Humidity 74    
Maximum Humidity 97    
Minimum Humidity 51    
Precipitation  
Precipitation 0.00 in - - ()
Sea Level Pressure  
Sea Level Pressure 29.88 in    
Wind  
Wind Speed 4 mph (SSW)    
Max Wind Speed 8 mph    
Max Gust Speed 16 mph    
Visibility 9 miles    
Events      
Averages and records for this station are not official NWS values.
T = Trace of Precipitation, MM = Missing Value Source: NWS Daily Summary

Daily Weather History Graph

Daily Weather History Graph

Search for Another Location

Airport:

Trip Planner

Search our weather history database for the weather conditions in past years. The results will help you decide how hot, cold, wet, or windy it might be!

Date:

Astronomy

Dec. 23, 2012 Rise Set
Actual Time 7:18 AM CST 5:09 PM CST
Civil Twilight 6:50 AM CST 5:37 PM CST
Nautical Twilight 6:18 AM CST 6:08 PM CST
Astronomical Twilight 5:48 AM CST 6:39 PM CST
Moon 1:55 PM CST (12/23) 3:06 AM CST (12/23)
Length of Visible Light 10h 46m
Length of Day
9h 50m
Waxing Gibbous, 82% of the Moon is Illuminated
Dec 23
Waxing Gibbous
Dec 28
Full
Jan 4
Last Quarter
Jan 11
New
Jan 18
First Quarter

Hourly Weather History & Observations

Time (CST) Temp. Dew Point Humidity Pressure Visibility Wind Dir Wind Speed Gust Speed Precip Events Conditions
12:53 AM 55.0 °F 37.0 °F 51% 30.01 in 10.0 mi Variable 6.9 mph - N/A   Clear
1:53 AM 55.0 °F 41.0 °F 59% 30.00 in 10.0 mi WSW 8.1 mph - N/A   Partly Cloudy
2:53 AM 55.0 °F 42.1 °F 62% 29.99 in 10.0 mi Variable 4.6 mph - N/A   Partly Cloudy
3:53 AM 55.0 °F 43.0 °F 64% 29.98 in 10.0 mi Variable 3.5 mph - N/A   Clear
4:53 AM 55.0 °F 44.1 °F 67% 29.96 in 10.0 mi Variable 5.8 mph - N/A   Scattered Clouds
5:53 AM 55.9 °F 46.0 °F 69% 29.96 in 10.0 mi Variable 5.8 mph - N/A   Overcast
6:53 AM 55.0 °F 46.0 °F 72% 29.96 in 10.0 mi Variable 3.5 mph - N/A   Overcast
7:53 AM 54.0 °F 46.9 °F 77% 29.96 in 10.0 mi Calm Calm - N/A   Overcast
8:53 AM 55.9 °F 48.0 °F 75% 29.96 in 10.0 mi Calm Calm - N/A   Mostly Cloudy
9:53 AM 55.9 °F 48.0 °F 75% 29.95 in 10.0 mi Variable 4.6 mph - N/A   Overcast
10:53 AM 57.0 °F 48.9 °F 74% 29.94 in 10.0 mi Variable 3.5 mph - N/A   Overcast
11:53 AM 59.0 °F 51.1 °F 75% 29.89 in 10.0 mi Variable 5.8 mph - N/A   Overcast
12:53 PM 61.0 °F 51.1 °F 70% 29.85 in 10.0 mi SSW 4.6 mph - N/A   Overcast
1:10 PM 62.6 °F 51.8 °F 68% 29.84 in 10.0 mi SSW 5.8 mph - N/A   Overcast
1:53 PM 64.9 °F 52.0 °F 63% 29.80 in 10.0 mi SSW 5.8 mph - N/A   Mostly Cloudy
2:53 PM 66.0 °F 50.0 °F 56% 29.80 in 10.0 mi South 5.8 mph 16.1 mph N/A   Mostly Cloudy
3:53 PM 64.0 °F 52.0 °F 65% 29.79 in 10.0 mi Variable 3.5 mph - N/A   Partly Cloudy
4:53 PM 63.0 °F 52.0 °F 67% 29.80 in 10.0 mi Calm Calm - N/A   Overcast
5:53 PM 59.0 °F 52.0 °F 78% 29.79 in 10.0 mi Calm Calm - N/A   Partly Cloudy
6:53 PM 55.0 °F 51.1 °F 86% 29.82 in 10.0 mi Calm Calm - N/A   Scattered Clouds
7:53 PM 53.1 °F 50.0 °F 89% 29.81 in 10.0 mi Calm Calm - N/A   Overcast
8:53 PM 51.1 °F 48.9 °F 92% 29.79 in 9.0 mi Calm Calm - N/A   Scattered Clouds
9:53 PM 48.9 °F 48.0 °F 97% 29.80 in 6.0 mi Calm Calm - N/A   Clear
10:53 PM 48.0 °F 46.9 °F 96% 29.79 in 5.0 mi Calm Calm - N/A   Mostly Cloudy
11:53 PM 48.9 °F 48.0 °F 97% 29.79 in 6.0 mi Calm Calm - N/A   Overcast